Weather in Rassukha

Russia / Bryansk Oblast     52°47′57″N   32°57′18″E
temp.,
°C
wind,
m/s
gust,
m/s
humid.,
%
clouds,
%
prec.,
mm/h
press.,
hPa
HPBL,
m
8 may, sat
sat800:00+10s71489100 0.4 1007665
03:00+10s4897100 0.8 1006538
06:00+9s3697100 2.9 1004224
09:00+10w3492100 5.0 1004275
12:00+10wnw5688100 0.9 1004544
15:00+7nnw81292100 1.8 1005592
18:00+5nw71296100 6.2 1007955
21:00+5nw71393100 10.9 1010845
9 may, sun
sun900:00+4wnw61288100 0.9 10121025
03:00+2wnw71486100 0.9 1015514
06:00+1wnw614885 0.0 1017498
09:00+6nw811705 0.0 10191045
12:00+9nw81053100 0.0 10202099
15:00+11nw7947100 0.0 10222331
18:00+10nw57568 0.0 10231481
21:00+5nw45705 0.0 102572
10 may, mon
mon1000:00+4nw35715 0.0 102769
03:00+3nnw33715 0.0 102837
06:00+3n22730 0.0 102925
09:00+9ne22593 0.0 1030392
12:00+13ne23440 0.0 10291387
15:00+14ne34445 0.0 10281451
18:00+14ne34550 0.0 10271136
21:00+8nne35670 0.0 102955
11 may, tue
tue1100:00+6ene35740 0.0 102863
03:00+5ne36770 0.0 102881
06:00+4nne411810 0.0 1028224
09:00+10ne711630 0.0 1027550
12:00+15ne78531 0.0 1025888
15:00+18ene68555 0.0 10241099
18:00+16e697496 0.0 1024896
21:00+11e379280 0.1 1024135
12 may, wed
wed1200:00+9ene38945 0.0 1024160
03:00+10ene2598100 0.5 1022189
06:00+9se3796100 0.8 1022367
09:00+11ese3478100 0.9 1021517
12:00+10ene4589100 2.1 1020345
15:00+13e577686 2.5 10201056
18:00+12ese51082100 1.2 1019451
21:00+10ese61391100 1.4 1019719